Current Conditions for Foresthill, CA. Clear skies, Dry   
Visibility: 10 miles
Foresthill Advisory text: No Warning

  Summary / Temperature 

Current Temperature
73.8°F
23.2°C
(24/hr Ago)
75.8°F
(Apparent temp)
68.6°F
Comfortable
Heat Index
73.1°F 

73.8°F/ 23.2°C
 --- Virtual Temp: 75.8°F ---

 Temp Rate:

 24/hr Difference:

 Avg Running Temp:

 Todays High:

 Todays Low:

 Y-days High:

 Y-days Low:

 Todays HeatIdx:

 Y-days HeatIdx:

 Evapotranspiration:

-1.0°F/hr 

-2°F

74.8°F

91.5°F 3:10pm

71.9°F 6:55am

92.0°F 2:09pm

69.7°F 6:09am

87.9°F 3:24pm

89.0°F 2:07pm

0.261 in

115' Above Ground

 Temperature:

 6'AGL VRS 115'AGL:

 Avg Running Temp:

 Humidity:

 Todays High:

 Todays Low:

 Y-days High:

 Y-days Low:

77.0°F 

+3.2°F

78.2°F

26% 

92.0°F 3:48pm

75.0°F 2:19am

94.0°F 3:54pm

72.0°F 5:23am

Temp & Humidity Graphs

  Wind 

Wind Speed

 4.0 mph

Gusting to

 15.0 mph

Wind from ESE

109°  ESE

Light breeze

 Avg speed:

 Wind Run:

 Peak Gust:

  6.0 mph 

60.0 miles

  21.0 mph 2:46am

  Almanac  

Moon age: 23 days,19 hours,19 minutes,33%

Waning Crescent
23%
Illuminated
24 days in cycle

 Moonrise:

 Moonset:

 Sunrise:

 Sunset:

 Solar Noon:

2:00am

3:27pm

5:41am

8:33pm

1:07pm

0min 29s less daylight tomorrow 

  Solar Radiation 

(Current Solar)
  No Sun Light
(Todays High)
 977 W/m2@12:12pm

Rain

 Rain Today:

 Rain Rate (/hr):

 Rain last hour:

 Rain Yesterday:

 This Month:

 Season Total:

33 Days Since Last Rain Day

0.00 in

0.000 in

0.00 in

0.00 in

0.00 in

50.02 in

Updated Time

Updated: 6/29/16  11:42pm

(Updated  sec ago)

Humidity & Barometer

 Humidity:

 Wetbulb:

 Dew Point:

 Barometer:

32% 

58.4°F 

42.1°F 

29.840 inHg 

 Baro Trend:  Steady 
Northern Calif
Preparedness
Fire 
Level 

    UV Index  

(Current UV)
0.0  None
(Todays High) @ 12:37pm
9.6   Very High

Weather Underground 5 day Forecast

Thu Fri Sat Sun Mon
Clear Clear Clear Clear Clear
Clear Clear Clear Clear Clear
100° 100° 96° 93° 93°
69° 68° 61° 63° 64°

Foresthill Probe 2 Stats  
Foresthill Probe 2: is located on Thomas Street
at 3000 feet. The main Foresthill Weather site
is located on Melody ln at the 2860 foot elevation

Calm
70.0°F
21.1°C
Temp Rate:
-2.2°F
Calm
Gusting to
3.0 mph
(Humidity)
37%
Wind from ESE
119°  ESE
Updated: 29/06/16 - 23:39:40
 Todays High: 94.5°F 14:30
 Todays Low: 68.8°F 05:07
 Rain Today: 0.00 in
 Season Total: 50.89 in

Foresthill Wx: Monthly,Yearly, Highs and Lows 

Foresthill  
This Weather Data is coming from the main Foresthill
Weather site located on Melody ln at the 2860 foot
elevation
Not Foresthill Probe 2
Weather Data
Month
  High
Month
  Low
Year
High
Year
Low
Temp 92.0°F
6/28/16
43.6°F
6/16/16
92.0°F
6/28/16
28.4°F
2/1/16
Humidity 88%
6/18/16
15%
6/29/16
100%
1/6/16
15%
6/29/16
Heat Index 89.0°F
6/28/16
47.9°F
6/16/16
89.0°F
6/28/16
33.3°F
2/1/16
Wind Chill 92.0°F
6/28/16
36.7°F
6/16/16
92.0°F
6/28/16
15.8°F
2/1/16
Wind Gust 23 mph
6/2/16
0 mph
6/1/16
48 mph
2/17/16
0 mph
1/1/16
Barometer 30.19 in
6/18/16
29.72 in
6/6/16
30.56 in
2/3/16
29.44 in
2/17/16
ET 0.27 in
6/22/16
0.00 in
6/1/16
0.27 in
6/22/16
0.00 in
1/1/16
Dew Point 64.3°F
6/4/16
31.2°F
6/23/16
64.3°F
6/4/16
19.9°F
1/1/16
Infrared Satellite Regional Radar Satellite Imagery Sacramento,CA.  (click to enlarge)
NWS Weather Forecast - Outlook: Tonight and Thursday
Tonight

Tonight: Patchy smoke. Mostly clear, with a low around 66. East northeast wind around 9 mph.
Patchy Smoke

Lo 66 °F
NWS forecast: Patchy smoke. Mostly clear, with a low around 66. East northeast wind around 9 mph.
Thursday

Thursday: Sunny, with a high near 92. East northeast wind 6 to 9 mph becoming southwest in the morning.
Sunny

Hi 92 °F
NWS forecast: Sunny, with a high near 92. East northeast wind 6 to 9 mph becoming southwest in the morning.
NWS Weather Forecast - Summary
Updated: Wednesday, June 29, 2016 - 3:00pm (PDT)
YR.NO 10 Day Weather forecast
Last update: 06/29/2016 @ 12:32
Next update: 06/30/2016 @ 01:00
Provided by: 22
      Temperature Precipitation Pressure Wind  
Today
06/29/2016
23:00 05:00 70°F   29.88 inHg Light air from east-northeast 1 mph
    (Click to enlarge)
meteogram

    Forecast for next 9 days

      Temperature Precip Pressure Wind  
Thursday
06/30/2016
05:00 11:00 59°F   29.83 inHg Light breeze from east-northeast 5 mph
  11:00 17:00 90°F   29.83 inHg Light breeze from west-southwest 5 mph
  17:00 23:00 91°F   29.76 inHg Light breeze from west-southwest 6 mph
  23:00 05:00 73°F   29.78 inHg Light air from east 1 mph
      Temperature Precip Pressure Wind  
Friday
07/01/2016
05:00 11:00 63°F   29.76 inHg Light breeze from east-northeast 4 mph
  11:00 17:00 90°F   29.79 inHg Light breeze from west-southwest 6 mph
  17:00 23:00 91°F   29.73 inHg Gentle breeze from southwest 8 mph
  23:00 05:00 72°F   29.82 inHg Light air from east 3 mph
      Temperature Precip Pressure Wind  
Saturday
07/02/2016
05:00 11:00 63°F   29.82 inHg Light breeze from east-northeast 6 mph
  11:00 17:00 86°F   29.89 inHg Light breeze from west-southwest 4 mph
  17:00 23:00 88°F   29.83 inHg Light breeze from west-southwest 7 mph
  23:00 05:00 68°F   29.90 inHg Light air from south 2 mph
      Temperature Precip Pressure Wind  
Sunday
07/03/2016
05:00 11:00 61°F   29.89 inHg Light air from east-northeast 3 mph
  11:00 17:00 82°F   29.94 inHg Light breeze from west-southwest 6 mph
  17:00 23:00 86°F   29.88 inHg Light breeze from southwest 7 mph
  23:00 05:00 66°F   29.92 inHg Light air from southeast 2 mph
      Temperature Precip Pressure Wind  
Monday
07/04/2016
05:00 11:00 59°F   29.89 inHg Light breeze from east-northeast 5 mph
  11:00 17:00 82°F   29.94 inHg Light breeze from southwest 6 mph
  17:00 23:00 84°F   29.87 inHg Light breeze from southwest 7 mph
  23:00 05:00 66°F   29.90 inHg Light air from east-southeast 2 mph
      Temperature Precip Pressure Wind  
Tuesday
07/05/2016
05:00 11:00 59°F   29.86 inHg Light air from east-northeast 3 mph
  11:00 17:00 81°F   29.87 inHg Light breeze from southwest 7 mph
  17:00 23:00 82°F   29.83 inHg Gentle breeze from south-southwest 8 mph
  23:00 05:00 66°F   29.86 inHg Light air from southeast 3 mph
      Temperature Precip Pressure Wind  
Wednesday
07/06/2016
05:00 11:00 59°F   29.85 inHg Light air from southeast 3 mph
  11:00 17:00 77°F   29.91 inHg Gentle breeze from south-southwest 8 mph
  17:00 23:00 79°F   29.89 inHg Gentle breeze from south-southwest 9 mph
  23:00 05:00 63°F   29.96 inHg Light air from south 3 mph
      Temperature Precip Pressure Wind  
Thursday
07/07/2016
05:00 11:00 57°F   29.94 inHg Light air from southeast 2 mph
  11:00 17:00 75°F   29.98 inHg Light breeze from southwest 7 mph
  17:00 23:00 79°F   29.94 inHg Light breeze from southwest 6 mph
  23:00 05:00 64°F   29.96 inHg Light air from southeast 2 mph
      Temperature Precip Pressure Wind  
Friday
07/08/2016
05:00 11:00 57°F   29.94 inHg Light air from east-northeast 3 mph
  11:00 17:00 82°F   29.92 inHg Light breeze from west-southwest 5 mph
  17:00 23:00 86°F   29.86 inHg Light breeze from southwest 5 mph
  23:00 05:00 70°F   29.90 inHg Light air from south-southeast 3 mph

Weather History For Thursday, June 30, 2016


On this Day - In Weather History ...
Data courtesy of weatherforyou.com
powered by Cumulus v1.9.3 (1059)
Ambient Weather VWS v14.00
Top Contact Website Map Copyright © 2007 - 2016 Foresthillweather.com Never base important decisions on this or any weather information obtained from the Internet